[[{"header":{"parameterUnit":"m.s-1","parameterCategory":1,"la1":30.2991,"la2":30.254,"lo1":-89.0895,"lo2":-89.0444,"dy":0.0017,"dx":0.0017,"nx":28,"ny":28,"refTime":"2024-03-14T21:00:00:Z","depth":0,"parameterNumber":2,"parameterNumberName":"U-component_of_WINDS"},"data":[0,0,0,0,0,0,0,0,0,0,0,0,0,0,0,0,0,0,0,0,0,0,0,0,0,0,0,0,0,0,0,0,0,0,0,0,0,0,0,0,0,0,0,0,0,0,0,0,0,0,0,0,0,0,0,0,0,0,-4.1381,-4.1381,0,-4.1443,-4.1444,-4.1445,-4.1385,-4.1383,-4.1381,-4.1378,-4.1444,-4.1448,-4.1452,0,0,0,0,0,0,0,0,0,0,0,0,0,-4.1212,-4.1215,-4.1381,-4.1381,-4.1382,-4.1443,-4.1444,-4.1445,-4.1386,-4.1383,-4.138,-4.1377,-4.1443,-4.1448,-4.1452,0,0,0,0,0,0,0,0,0,0,0,0,0,-4.1281,-4.1216,-4.138,-4.136,-4.1359,-4.1443,-4.1444,-4.1445,-4.1386,-4.1383,-4.1379,-4.1376,-4.1441,-4.1447,-4.1453,-4.1561,0,0,-4.1471,-4.1474,0,0,0,0,0,0,0,0,-4.1277,-4.1287,-4.1362,-4.1362,-4.136,-4.1403,-4.1409,-4.1484,-4.1387,-4.1376,-4.1378,-4.1374,-4.1433,-4.144,-4.1459,-4.1564,-4.1567,-4.1472,-4.1475,-4.1478,-4.148,0,0,0,0,0,0,0,-4.1272,-4.1284,-4.1405,-4.1363,-4.1362,-4.1348,-4.1354,-4.1423,-4.1424,-4.1377,-4.1372,-4.1381,-4.1432,-4.1454,-4.1461,-4.1568,-4.1472,-4.1477,-4.1481,-4.1483,-4.1766,-4.177,0,0,0,0,0,0,-4.127,-4.1281,-4.1403,-4.1407,-4.1309,-4.1354,-4.1361,-4.1393,-4.1423,-4.1424,-4.1384,-4.1378,-4.1445,-4.1454,-4.1463,-4.1591,-4.1478,-4.1483,-4.1487,-4.1762,-4.1767,-4.1771,0,0,0,0,0,0,-4.1266,-4.1281,-4.1401,-4.1343,-4.1357,-4.1361,-4.1397,-4.1396,-4.1417,-4.1428,-4.1428,-4.1405,-4.1443,-4.1454,-4.1537,-4.1593,-4.1486,-4.1492,-4.1757,-4.1763,-4.1769,-4.185,0,0,0,0,0,0,-4.1262,-4.128,-4.1321,-4.1344,-4.136,-4.1474,-4.1401,-4.14,-4.1428,-4.142,-4.1449,-4.145,-4.1441,-4.1529,-4.1543,-4.1599,-4.1496,-4.1752,-4.176,-4.1767,-4.1842,-4.1858,-4.1871,0,0,0,0,0,-4.1256,-4.1341,-4.1323,-4.1338,-4.1411,-4.1477,-4.1486,-4.1474,-4.1432,-4.1473,-4.1481,-4.1449,-4.1585,-4.1538,-4.1553,-4.1612,-4.1749,-4.1758,-4.1766,-4.1836,-4.1855,-4.1871,0,0,0,0,0,0,-4.1324,-4.1344,-4.1324,-4.1419,-4.1447,-4.1467,-4.1518,-4.1494,-4.1535,-4.1526,-4.151,-4.1517,-4.1604,-4.1617,-4.1564,-4.1719,-4.166,-4.1673,-4.1707,-4.1726,-4.174,-4.1735,-4.1501,0,0,0,0,0,-4.1351,-4.1402,-4.1417,-4.15,-4.1514,-4.1514,-4.1543,-4.1531,-4.1559,-4.157,-4.1583,-4.1613,-4.1662,-4.1695,-4.174,-4.1844,-4.185,-4.1893,-4.1907,-4.1919,-4.193,-4.1986,-4.2005,-4.18,-4.18,-4.18,0,0,-4.1405,-4.1422,-4.1456,-4.1514,-4.1534,-4.1588,-4.1524,-4.1584,-4.1625,-4.158,-4.1658,-4.167,-4.1701,-4.1795,-4.1837,-4.1808,-4.1988,-4.193,-4.1939,-4.1944,-4.1997,-4.2016,-4.2034,-4.1806,-4.1805,-4.1804,0,0,-4.1532,-4.155,-4.1621,-4.1643,-4.1674,-4.1674,-4.1691,-4.1715,-4.1721,-4.1799,-4.1767,-4.1815,-4.19,-4.1924,-4.1947,-4.2086,-4.2058,-4.2101,-4.2176,-4.2232,-4.2248,-4.2262,-4.2311,-4.2329,-4.2112,-4.2112,-4.2112,0,-4.1596,-4.1676,-4.1661,-4.1724,-4.1751,-4.1712,-4.1785,-4.1807,-4.1852,-4.1871,-4.1838,-4.1944,-4.1963,-4.2062,-4.2096,-4.2116,-4.2136,-4.2097,-4.2247,-4.2261,-4.2274,-4.2321,-4.2339,-4.2117,-4.2117,-4.2116,-4.2116,0,-4.1753,-4.1809,-4.1863,-4.1907,-4.194,-4.2008,-4.2004,-4.2039,-4.2025,-4.2029,-4.211,-4.2131,-4.2181,-4.2204,-4.2191,-4.2302,-4.2283,-4.2249,-4.2189,-4.2299,-4.2342,-4.236,-4.2124,-4.2123,-4.2121,-4.212,0,0,-4.1923,-4.1959,-4.1979,-4.1999,-4.2032,-4.2075,-4.2141,-4.219,-4.222,-4.2253,-4.2309,-4.2382,-4.2351,-4.2378,-4.2367,-4.2416,-4.2524,-4.2375,-4.2376,-4.2402,-4.2648,-4.2673,-4.2694,-4.2507,-4.251,-4.2513,-4.2645,0,-4.2051,-4.2165,-4.2155,-4.2263,-4.2315,-4.2281,-4.2339,-4.2365,-4.2371,-4.2416,-4.2423,-4.2475,-4.243,-4.2446,-4.2492,-4.2501,-4.2573,-4.2491,-4.2558,-4.2561,-4.255,-4.2717,-4.2743,-4.2868,-4.2662,-4.2665,-4.2667,0,-4.2215,-4.2253,-4.2367,-4.2392,-4.2414,-4.2466,-4.251,-4.2554,-4.2584,-4.2585,-4.2615,-4.2597,-4.2664,-4.2604,-4.2698,-4.2642,-4.267,-4.2678,-4.2683,-4.2688,-4.262,-4.2726,-4.2907,-4.2925,-4.2694,-4.2692,-4.269,0,-4.2327,-4.2408,-4.2486,-4.2504,-4.2536,-4.2574,-4.2589,-4.2615,-4.2645,-4.2684,-4.2704,-4.275,-4.2776,-4.2813,-4.2808,-4.2765,-4.2903,-4.2843,-4.2906,-4.2906,-4.2936,-4.2934,-4.3123,-4.2955,-4.2955,-4.2954,-4.2954,0,-4.2471,-4.2541,-4.2537,-4.2585,-4.2664,-4.2652,-4.2731,-4.2742,-4.2766,-4.2816,-4.279,-4.2838,-4.2829,-4.2877,-4.2874,-4.2952,-4.2964,-4.2967,-4.2965,-4.2969,-4.2969,-4.2986,-4.2977,-4.2959,-4.2958,-4.2957,-4.2956,0,-4.2609,-4.2609,-4.2692,-4.2716,-4.2723,-4.278,-4.2801,-4.2847,-4.2851,-4.2915,-4.2929,-4.2936,-4.2991,-4.2991,-4.3054,-4.3052,-4.3148,-4.3136,-4.3137,-4.3135,-4.3198,-4.3192,-4.3404,-4.3432,-4.3246,-4.3248,-4.325,0,-4.27,-4.2753,-4.2783,-4.2815,-4.2832,-4.2883,-4.2914,-4.2905,-4.2938,-4.2977,-4.3019,-4.3072,-4.3114,-4.3205,-4.3216,-4.3265,-4.3254,-4.3325,-4.3261,-4.3263,-4.3254,-4.3251,-4.3256,-4.3337,-4.3339,-4.3341,-4.3342,0,-4.2861,-4.2859,-4.2903,-4.2949,-4.2987,-4.3022,-4.3055,-4.3083,-4.3077,-4.3116,-4.3173,-4.3205,-4.327,-4.3324,-4.3371,-4.3387,-4.3365,-4.3363,-4.338,-4.3384,-4.3382,-4.3383,-4.3171,-4.3357,-4.3356,-4.3355,-4.3354,-4.3353,-4.2978,-4.3024,-4.3052,-4.3104,-4.3128,-4.3159,-4.3204,-4.3214,-4.326,-4.3312,-4.3304,-4.3368,-4.3398,-4.3459,-4.3479,-4.3529,-4.3504,-4.3529,-4.3536,-4.3542,-4.3549,-4.3375,-4.3538,-4.3538,-4.3537,-4.3537,-4.3537,0,-4.3137,-4.3154,-4.3202,-4.3248,-4.3289,-4.3264,-4.33,-4.3335,-4.3391,-4.3421,-4.3463,-4.3528,-4.358,-4.3596,-4.3647,-4.3684,-4.3675,-4.3697,-4.3694,-4.3698,-4.3568,-4.3548,-4.3704,-4.3704,-4.3704,-4.3704,-4.3704,-4.3704,-4.3225,-4.3302,-4.3304,-4.3393,-4.3409,-4.3471,-4.3493,-4.3522,-4.3546,-4.362,-4.3663,-4.3673,-4.3698,-4.375,-4.3797,-4.38,-4.382,-4.3847,-4.3846,-4.3724,-4.3707,-4.3691,-4.3672,-4.3851,-4.3852,-4.3972,-4.3973,-4.3974]},{"header":{"parameterUnit":"m.s-1","parameterCategory":1,"la1":30.2991,"la2":30.254,"lo1":-89.0895,"lo2":-89.0444,"dy":0.0017,"dx":0.0017,"nx":28,"ny":28,"refTime":"2024-03-14T21:00:00:Z","depth":0,"parameterNumber":3,"parameterNumberName":"V-component_of_WINDS"},"data":[0,0,0,0,0,0,0,0,0,0,0,0,0,0,0,0,0,0,0,0,0,0,0,0,0,0,0,0,0,0,0,0,0,0,0,0,0,0,0,0,0,0,0,0,0,0,0,0,0,0,0,0,0,0,0,0,0,0,1.7729,1.773,0,1.7813,1.7814,1.7814,1.7845,1.7845,1.7845,1.7845,1.7926,1.7928,1.7931,0,0,0,0,0,0,0,0,0,0,0,0,0,1.7594,1.7596,1.7729,1.773,1.7731,1.7812,1.7814,1.7815,1.7845,1.7845,1.7845,1.7844,1.7925,1.7928,1.7931,0,0,0,0,0,0,0,0,0,0,0,0,0,1.7662,1.7597,1.7729,1.7756,1.7759,1.7812,1.7814,1.7815,1.7845,1.7845,1.7845,1.7844,1.7924,1.7928,1.7932,1.7962,0,0,1.7943,1.7944,0,0,0,0,0,0,0,0,1.7658,1.7667,1.7751,1.7754,1.7758,1.7818,1.7796,1.7864,1.7846,1.7813,1.7845,1.7844,1.789,1.7897,1.7913,1.7966,1.7969,1.7943,1.7945,1.7947,1.7948,0,0,0,0,0,0,0,1.7653,1.7664,1.7762,1.7752,1.7757,1.7764,1.7773,1.7809,1.7852,1.7815,1.7818,1.7828,1.7892,1.791,1.7915,1.797,1.7943,1.7946,1.7948,1.795,1.8054,1.8055,0,0,0,0,0,0,1.7644,1.7659,1.7759,1.7764,1.7706,1.7766,1.7777,1.7799,1.7852,1.786,1.7828,1.7829,1.7904,1.7911,1.7918,1.7959,1.7947,1.795,1.7952,1.8054,1.8055,1.8055,0,0,0,0,0,0,1.7641,1.7653,1.7756,1.7713,1.7726,1.7769,1.7794,1.7801,1.7819,1.7862,1.7869,1.7838,1.7904,1.7913,1.7952,1.7962,1.7952,1.7955,1.8053,1.8054,1.8055,1.804,0,0,0,0,0,0,1.7637,1.7652,1.7664,1.7713,1.7729,1.7788,1.7795,1.7803,1.7825,1.7827,1.7873,1.788,1.7904,1.7946,1.7955,1.7967,1.7958,1.8052,1.8054,1.8055,1.8039,1.804,1.804,0,0,0,0,0,1.7633,1.7655,1.7664,1.7676,1.7745,1.7789,1.7798,1.7826,1.7826,1.7839,1.7867,1.7879,1.796,1.795,1.796,1.7973,1.8052,1.8053,1.8055,1.8039,1.804,1.804,0,0,0,0,0,0,1.7604,1.7662,1.7673,1.7712,1.7745,1.7794,1.781,1.7825,1.7858,1.7858,1.7891,1.7901,1.7937,1.7959,1.7947,1.8007,1.8007,1.801,1.7991,1.7992,1.7993,1.7987,1.7961,0,0,0,0,0,1.7602,1.7634,1.7683,1.7712,1.7729,1.7767,1.7787,1.7806,1.7842,1.7855,1.7886,1.7919,1.7953,1.7973,1.8006,1.8043,1.8054,1.8057,1.8058,1.8058,1.806,1.8084,1.8086,1.806,1.806,1.806,0,0,1.7599,1.7635,1.7652,1.7707,1.7736,1.7768,1.7778,1.7811,1.7835,1.786,1.7899,1.7923,1.7962,1.8001,1.8019,1.802,1.807,1.8059,1.8059,1.8062,1.8085,1.8088,1.809,1.8061,1.8061,1.806,0,0,1.761,1.7639,1.7668,1.7698,1.7741,1.7767,1.7774,1.7821,1.7839,1.7879,1.7899,1.7928,1.7983,1.8011,1.8033,1.8057,1.807,1.8067,1.8069,1.8091,1.8094,1.8096,1.8106,1.8109,1.8069,1.8069,1.8069,0,1.7599,1.7649,1.7681,1.7714,1.7738,1.7765,1.7795,1.7821,1.7872,1.7888,1.7889,1.7962,1.799,1.8036,1.8043,1.8058,1.8068,1.8062,1.8091,1.8093,1.8096,1.8106,1.8109,1.8069,1.8069,1.8069,1.8069,0,1.7636,1.767,1.7688,1.774,1.7767,1.7797,1.7834,1.7857,1.7874,1.79,1.7941,1.7976,1.8018,1.803,1.8046,1.8079,1.8079,1.8085,1.8085,1.8097,1.8107,1.8111,1.8068,1.8068,1.8068,1.8068,0,0,1.7628,1.77,1.7706,1.7731,1.7783,1.781,1.7843,1.7885,1.7905,1.794,1.7969,1.8017,1.8024,1.8048,1.8068,1.8087,1.8107,1.8091,1.8093,1.8094,1.8147,1.8143,1.8147,1.8116,1.8116,1.8117,1.8144,0,1.7647,1.7708,1.7739,1.7787,1.782,1.7847,1.7876,1.7911,1.7936,1.7967,1.7995,1.8029,1.8035,1.805,1.8071,1.81,1.8118,1.8098,1.8143,1.8144,1.8133,1.8152,1.8147,1.8171,1.8148,1.8149,1.815,0,1.7675,1.7713,1.7765,1.7816,1.7831,1.7856,1.79,1.7929,1.7969,1.7987,1.8016,1.8036,1.8071,1.807,1.812,1.8106,1.8126,1.8143,1.8145,1.8151,1.8148,1.8159,1.8179,1.8183,1.8156,1.8155,1.8155,0,1.7667,1.7731,1.7771,1.7791,1.785,1.7868,1.7893,1.7934,1.7958,1.7995,1.8012,1.8052,1.8074,1.8104,1.8134,1.813,1.8182,1.8182,1.8198,1.8197,1.8207,1.8206,1.8232,1.8219,1.8219,1.8219,1.8219,0,1.7684,1.7715,1.7768,1.7793,1.7829,1.7864,1.7899,1.7926,1.7962,1.7992,1.8017,1.8045,1.8083,1.8116,1.814,1.8179,1.8188,1.8203,1.8209,1.8201,1.8199,1.8215,1.8214,1.822,1.822,1.8219,1.8219,0,1.768,1.7717,1.7763,1.7817,1.7831,1.7855,1.7901,1.7926,1.7954,1.7992,1.8003,1.8046,1.8086,1.812,1.8171,1.8188,1.8228,1.8235,1.8215,1.8219,1.8233,1.8231,1.827,1.8277,1.8258,1.8258,1.8258,0,1.7689,1.7714,1.7772,1.7795,1.7821,1.7857,1.7884,1.792,1.7946,1.7995,1.8015,1.8057,1.8093,1.8156,1.8191,1.8231,1.8239,1.825,1.8245,1.8238,1.8241,1.824,1.8243,1.825,1.825,1.825,1.825,0,1.7701,1.7719,1.7756,1.7801,1.7833,1.7869,1.7906,1.7923,1.7966,1.7994,1.8037,1.8065,1.812,1.8162,1.8207,1.8232,1.8249,1.8252,1.8258,1.825,1.8239,1.8247,1.8217,1.8251,1.8251,1.8251,1.8251,1.8251,1.7704,1.7729,1.7775,1.7816,1.7849,1.7884,1.7911,1.7943,1.798,1.8029,1.8048,1.8092,1.8133,1.8196,1.8222,1.8256,1.8258,1.8266,1.8268,1.827,1.827,1.8233,1.8264,1.8264,1.8264,1.8264,1.8264,0,1.7719,1.7751,1.7789,1.7842,1.7875,1.789,1.7932,1.7959,1.7998,1.8036,1.8072,1.8122,1.8164,1.8204,1.8247,1.8267,1.8276,1.8278,1.8277,1.8283,1.8265,1.8256,1.827,1.827,1.827,1.827,1.827,1.827,1.7731,1.7774,1.7798,1.7858,1.7889,1.7934,1.7957,1.799,1.8021,1.8076,1.8112,1.8139,1.8178,1.8225,1.8264,1.8275,1.829,1.829,1.8302,1.8285,1.8284,1.8283,1.8275,1.8293,1.8293,1.8318,1.8318,1.8318]}]]